Forside
METAR-TAF:

METAR-TAF

Lufthavne :

Burlington Municipal Airport

Burlington, Wisconsin, USA

Breddekreds: 42-41-26N, længdekreds: 088-18-17W, højde: 237 m

Aktuelle vejr

Denne rapport blev lavet for 16 minutter siden, kl. 18:55 UTC
Vind 7 kt fra vestnordvest
Temperatur 7°C
Fugtighed 26%
Tryk 1026 hPa
Sigt: 16.1 km
skyfri

METAR: KBUU 021855Z AUTO 30007KT 10SM CLR 07/M11 A3029 RMK AO2 T00721112 PWINO

Tid: 13:11 (19:11 UTC)


TAF: fraværende

Vejrobservationer og prognoser fra mere end 4000 lufthavne (METAR og TAF).

De gule og røde prikker repræsenterer de meteorologiske stationer.

Flyt musen over at se navnet på stationen.

Så klik over at se vejr observationer og prognoser.

At skifte det kort: Klik på de grønne knapper med et sort kors for at zoome ind; på den grønne knap med en bindestreg for at zoome ud; eller på de grønne pile for tilstødende kort.


METAR-TAF: